Flag for Germany Weather past 2 weeks in Papenburg, Lower Saxony, Germany

Now
52 °F

Drizzle. Low clouds.


Feels Like: N/A
Forecast: 43 / 53 °F
Wind: N/A

Location: Emden-Koenigspolder

Current Time: Dec 18, 2014 at 3:30:42 PM

Latest Report: Dec 18, 2014 at 3:00 PM


Visibility: 2 mi

Pressure: 29.62 "Hg

Humidity: 97%

Dew point: 51 °F

Location of PapenburgLocation

Historic Weather in Papenburg — Graph

°F

Papenburg temperature yesterday

Maximum temperature yesterday: 48 °F (at 11:00 PM)
Minimum temperature yesterday: 36 °F (at 1:00 AM)
Average temperature yesterday: 42 °F

Past Weeks' High & Low Weather Summary

 TemperatureHumidityPressure
High52 °F (Dec 18, 2:00 PM)100% (Dec 9, 5:00 AM)30.29 "Hg (Dec 9, 5:00 AM)
Low30 °F (Dec 3, 11:00 PM)71% (Dec 10, 3:00 PM)29.12 "Hg (Dec 12, 12:00 PM)
Average39 °F89%29.85 "Hg
* Reported Dec 3 2:00 PM — Dec 18 2:00 PM, Papenburg, Weather by CustomWeather, © 2014

Note: Actual official high and low records may vary slightly from our data, if they occured in-between our weather recording intervals... More about our weather records

Advertising

Papenburg weather history for previous 24 hours

 ConditionsComfort  
Time TempWeatherWind HumidityBarometerVisibility
2:00 PM
Dec 18
52 °FLight freezing rain. Low clouds.N/A97%29.64 "Hg1 mi
1:00 PM51 °FDrizzle. Low clouds.N/A97%29.65 "Hg3 mi
12:00 PM51 °FDrizzle. Low clouds.N/A97%29.67 "Hg3 mi
11:00 AM50 °FDrizzle. Low clouds.N/A97%29.68 "Hg3 mi
9:00 AM50 °FLow clouds.N/A97%29.68 "Hg2 mi
8:00 AM49 °FLow clouds.N/A98%29.68 "Hg2 mi
7:00 AM49 °FFog.N/A96%29.68 "Hg2 mi
6:00 AM49 °FLow clouds.N/A96%29.67 "Hg3 mi
5:00 AM49 °FDrizzle. Low clouds.N/A96%29.68 "Hg3 mi
3:00 AM48 °FFog.N/A96%29.69 "Hg4 mi
2:00 AM47 °FFog.N/A96%29.69 "Hg4 mi
1:00 AM47 °FLow clouds.N/A95%29.69 "Hg7 mi
12:00 AM47 °FPassing clouds.3 mph95%29.68 "Hg12 mi
11:00 PM
Dec 17
48 °FLow clouds.5 mph95%29.67 "Hg7 mi
9:00 PM47 °FLow clouds.3 mph95%29.64 "Hg13 mi
8:00 PM44 °FPassing clouds.6 mph91%29.61 "Hg31 mi
7:00 PM46 °FOvercast.6 mph93%29.58 "Hg18 mi
6:00 PM47 °FOvercast.6 mph94%29.55 "Hg14 mi
5:00 PM47 °FDrizzle. Low clouds.7 mph95%29.50 "Hg10 mi
4:00 PM47 °FOvercast.8 mph94%29.47 "Hg16 mi
3:00 PM46 °FDrizzle. Low clouds.6 mph97%29.44 "Hg5 mi
Weather by CustomWeather, © 2014

See weather overviewHow to use our weather pages